This demonstration page uses our WeatherBlox Daily Observations layout. Learn more.

36.17497, -115.13722

Hourly Observations for May 28, 2015

Temp ( °F °C ) Dew Point ( °F °C ) Humidity (%) Winds ( mph kmh ) Pressure ( in mb ) Visibility ( mi km ) Precip ( " mm )
12:53 am 00:53 Clear 79 26.1 30 -1.1 17 17 Calm 29.85 1011 10 16.0934 0 0
1:53 am 01:53 Clear 74 23.3 28 -2.2 18 18 ENE 3 6 29.87 1012 10 16.0934 0 0
2:53 am 02:53 Clear 76 24.4 21 -6.1 13 13 E 10 17 29.87 1011 10 16.0934 0 0
3:53 am 03:53 Clear 75 23.9 27 -2.8 17 17 WNW 3 6 29.88 1012 10 16.0934 0 0
4:53 am 04:53 Clear 73 22.8 28 -2.2 19 19 Calm 29.89 1012 10 16.0934 0 0
5:53 am 05:53 Sunny 70 21.1 31 -0.6 23 23 WNW 3 6 29.91 1013 10 16.0934 0 0
6:53 am 06:53 Sunny 73 22.8 35 1.7 25 25 S 5 7 29.93 1013 10 16.0934 0 0
7:53 am 07:53 Sunny 76 24.4 36 2.2 23 23 SE 5 7 29.94 1014 10 16.0934 0 0
8:53 am 08:53 Sunny 81 27.2 32 0 17 17 ESE 13 20 29.94 1014 10 16.0934 0 0
9:53 am 09:53 Sunny 82 27.8 30 -1.1 15 15 ESE 9 15 29.94 1014 10 16.0934 0 0
10:53 am 10:53 Sunny 84 28.9 28 -2.2 13 13 Calm 29.93 1014 10 16.0934 0 0
11:53 am 11:53 Sunny 88 31.1 30 -1.1 12 12 SSE 9 15 29.91 1013 10 16.0934 0 0
12:53 pm 12:53 Sunny 91 32.8 29 -1.7 11 11 SE 12 19 29.89 1012 10 16.0934 0 0
1:53 pm 13:53 Sunny 92 33.3 28 -2.2 10 10 VRB 6 9 29.87 1011 10 16.0934 0 0
2:53 pm 14:53 Sunny 93 33.9 26 -3.3 9 9 VRB 3 6 29.84 1011 10 16.0934 0 0
3:53 pm 15:53 Sunny 93 33.9 25 -3.9 8 8 undefined N/A 29.82 1010 10 16.0934 0 0
4:53 pm 16:53 Sunny 95 35 24 -4.4 8 8 ESE 10 17 29.8 1009 10 16.0934 0 0
5:53 pm 17:53 Sunny 94 34.4 24 -4.4 8 8 SE 14 22 29.79 1009 10 16.0934 0 0
6:53 pm 18:53 Sunny 93 33.9 24 -4.4 8 8 SE 12 19 29.8 1009 10 16.0934 0 0
7:53 pm 19:53 Clear 91 32.8 21 -6.1 8 8 S 14 22 29.8 1009 10 16.0934 0 0
8:53 pm 20:53 Clear 90 32.2 23 -5 9 9 S 10 17 29.81 1010 10 16.0934 0 0
9:53 pm 21:53 Clear 89 31.7 25 -3.9 10 10 SSW 8 13 29.83 1010 10 16.0934 0 0
10:53 pm 22:53 Clear 88 31.1 26 -3.3 10 10 Calm 29.83 1010 10 16.0934 0 0
11:53 pm 23:53 Clear 85 29.4 28 -2.2 13 13 W 3 6 29.83 1010 10 16.0934 0 0

Powered by AerisWeather